Regional Weather Roundup
Issued by NWS Charleston, WV

Home | Current Version | Previous Version | Text Only | Print | Product List | Glossary On
Versions: 1 2 3 4 5 6 7 8 9 10 11 12 13 14 15 16 17 18 19 20 21 22 23 24 25 26 27 28 29 30 31 32 33 34 35 36 37 38 39 40 41 42 43 44 45 46 47 48 49 50
000
ASUS41 KRLX 112210
RWRRLX
Regional Weather Roundup
National Weather Service Charleston WV
500 PM EST TUE DEC 11 2018

Note: "fair" indicates few or no clouds below 12,000 feet with no
significant weather and/or obstructions to visibility.

WVZ003-112300-
Northern Panhandle of West Virginia

CITY           SKY/WX    TMP DP  RH WIND       PRES   REMARKS
WHEELING       FAIR      32  21  64 SW9       30.01F
$$

WVZ009-112300-
Northwest West Virginia

CITY           SKY/WX    TMP DP  RH WIND       PRES   REMARKS
PARKERSBURG    FAIR      38  14  37 SW7G16    30.09S
$$

WVZ006-112300-
Western West Virginia

CITY           SKY/WX    TMP DP  RH WIND       PRES   REMARKS
HUNTINGTON     FAIR      41  13  31 SW6       30.11F
$$

WVZ015-112300-
West Central West Virginia

CITY           SKY/WX    TMP DP  RH WIND       PRES   REMARKS
CHARLESTON     FAIR      39  18  42 SW10      30.10F
$$

WVZ022-031-112300-
North Central West Virginia

CITY           SKY/WX    TMP DP  RH WIND       PRES   REMARKS
MORGANTOWN     FAIR      36  13  38 SW7       30.04R
CLARKSBURG     FAIR      37  15  40 SW9       30.05F
BUCKHANNON     FAIR      34  16  47 SW10      30.05S
$$

WVZ025-035-042-045-112300-
Southern West Virginia

CITY           SKY/WX    TMP DP  RH WIND       PRES   REMARKS
BECKLEY        FAIR      32  14  47 W10       30.07F
LOGAN          FAIR      36  23  60 CALM      30.11S
PINEVILLE      FAIR      28  24  85 MISG      30.17F
BLUEFIELD      FAIR      32  11  41 W12       30.08F
LEWISBURG      FAIR      33  14  45 SW9       30.06F
$$

WVZ047-112300-
Northern Mountains of West Virginia

CITY           SKY/WX    TMP DP  RH WIND       PRES   REMARKS
ELKINS         FAIR      34  12  40 VRB6      30.03S
$$

WVZ052-112300-
Eastern Panhandle of West Virginia

CITY           SKY/WX    TMP DP  RH WIND       PRES   REMARKS
MARTINSBURG    FAIR      43  13  29 VRB5      29.99S
PETERSBURG     FAIR      40  15  34 W9        29.99F
$$

Southeast Ohio/Northeast Kentucky

CITY           SKY/WX    TMP DP  RH WIND       PRES   REMARKS
ATHENS         FAIR      38  20  48 SW5       30.08F
ASHLAND        FAIR      41  16  36 W7        30.13S
$$



USA.gov is the U.S. government's official web portal to all federal, state and local government web resources and services.